Home   Weather   Kingston   Past weeks

Flag for Norfolk Island Past Weather in Kingston, Norfolk Island — Yesterday and Last 2 Weeks

Now
72 °F

Partly sunny.


Feels Like: 76 °F
Forecast: 65 / 70 °F
Wind: 10 mph from East

Location: Norfolk Island Airport

Current Time: Dec 6, 2016 at 11:50:57 am

Latest Report: Dec 6, 2016 at 11:00 am


Visibility: N/A

Pressure: 30.12 "Hg

Humidity: 61%

Dew Point: 57 °F

Location of KingstonLocation

Past Weather in Kingston — Graph

°F

Kingston Temperature Yesterday

Maximum temperature yesterday: 72 °F (at 8:30 am)
Minimum temperature yesterday: 61 °F (at 1:00 am)
Average temperature yesterday: 67 °F

High & Low Weather Summary for the Past Weeks

 TemperatureHumidityPressure
High75 °F (Nov 25, 11:00 am)100% (Nov 25, 7:00 am)30.21 "Hg (Nov 25, 7:00 am)
Low61 °F (Dec 5, 1:00 am)57% (Nov 26, 12:30 pm)29.80 "Hg (Nov 25, 2:00 am)
Average68 °F76%30.00 "Hg
* Reported Nov 21 10:00 am — Dec 6 10:00 am, Kingston, Weather by CustomWeather, © 2016

Note: Actual official high and low records may vary slightly from our data, if they occured in-between our weather recording intervals... More about our weather records

Advertising

Kingston Weather History for the Previous 24 Hours

Scroll right to see more
 ConditionsComfort  
Time TempWeatherWind HumidityBarometerVisibility
10:00 am
Tue, Dec 6
72 °FPartly sunny.9 mph61%30.12 "HgN/A
9:30 am72 °FSunny.10 mph61%30.12 "HgN/A
9:00 am72 °FPassing clouds.10 mph57%30.12 "HgN/A
8:30 am70 °FPassing clouds.10 mph64%30.12 "HgN/A
8:00 am70 °FPassing clouds.9 mph64%30.12 "HgN/A
7:30 am70 °FSunny.10 mph60%30.12 "HgN/A
7:00 am68 °FScattered clouds.8 mph69%30.12 "HgN/A
6:30 am68 °FScattered clouds.7 mph69%30.12 "HgN/A
6:00 am66 °FScattered clouds.5 mph73%30.12 "HgN/A
5:30 am64 °FOvercast.3 mph73%30.12 "HgN/A
5:00 am63 °FScattered clouds.5 mph77%30.12 "HgN/A
4:30 am63 °FPassing clouds.3 mph77%30.09 "HgN/A
4:00 am63 °FPassing clouds.5 mph77%30.09 "HgN/A
3:30 am63 °FPassing clouds.3 mph83%30.09 "HgN/A
3:00 am61 °FPassing clouds.5 mph88%30.09 "HgN/A
2:30 am63 °FPassing clouds.3 mph83%30.09 "HgN/A
2:00 am61 °FPassing clouds.6 mph88%30.07 "HgN/A
1:30 am63 °FPassing clouds.5 mph83%30.09 "HgN/A
1:00 am61 °FClear.5 mph88%30.09 "HgN/A
12:30 am63 °FPassing clouds.5 mph83%30.09 "HgN/A
12:00 am61 °FClear.6 mph88%30.09 "HgN/A
11:30 pm
Mon, Dec 5
61 °FClear.5 mph83%30.12 "HgN/A
11:00 pm63 °FClear.5 mph77%30.12 "HgN/A
10:00 pm63 °FClear.5 mph77%30.12 "HgN/A
9:30 pm63 °FClear.6 mph77%30.12 "HgN/A
9:00 pm63 °FClear.6 mph77%30.12 "HgN/A
8:30 pm63 °FClear.6 mph83%30.12 "HgN/A
8:00 pm64 °FClear.5 mph78%30.12 "HgN/A
7:30 pm64 °FClear.6 mph78%30.09 "HgN/A
7:00 pm64 °FClear.6 mph78%30.09 "HgN/A
6:30 pm66 °FSunny.6 mph73%30.09 "HgN/A
6:00 pm68 °FSunny.9 mph69%30.09 "HgN/A
5:30 pm68 °FScattered clouds.8 mph73%30.07 "HgN/A
5:00 pm70 °FScattered clouds.9 mph69%30.07 "HgN/A
4:30 pm70 °FScattered clouds.9 mph64%30.07 "HgN/A
4:00 pm70 °FScattered clouds.9 mph69%30.07 "HgN/A
3:30 pm72 °FScattered clouds.8 mph65%30.07 "HgN/A
3:00 pm72 °FScattered clouds.12 mph61%30.07 "HgN/A
2:30 pm70 °FScattered clouds.9 mph64%30.07 "HgN/A
2:00 pm72 °FScattered clouds.10 mph65%30.09 "HgN/A
1:00 pm70 °FPassing clouds.9 mph69%30.09 "HgN/A
12:30 pm72 °FPassing clouds.10 mph65%30.09 "HgN/A
12:00 pm72 °FPassing clouds.9 mph65%30.09 "HgN/A
11:30 am70 °FScattered clouds.10 mph69%30.09 "HgN/A
11:00 am72 °FPartly sunny.9 mph65%30.09 "HgN/A
Weather by CustomWeather, © 2016

See weather overviewHow to use our weather pages